Dickinson, ND

4:42 AM MDT on May 24, 2018 (GMT -0600)
Dickinson Municipal

Weather History for KDIK - January, 2013

Change the Weather History Date:

Thursday, January 10, 2013

  Actual Average Record
Temperature  
Mean Temperature 31 °F 16 °F  
Max Temperature 37 °F 26 °F 57 °F (1995)
Min Temperature 24 °F 6 °F -29 °F (1982)
Degree Days  
Heating Degree Days 34 49  
Month to date heating degree days 419 490  
Since 1 July heating degree days 3810 4027  
Cooling Degree Days 0 0  
Month to date cooling degree days 0 0  
Year to date cooling degree days 0 0  
Moisture  
Dew Point 25 °F    
Average Humidity 78    
Maximum Humidity 92    
Minimum Humidity 64    
Precipitation  
Precipitation 0.00 in 0.01 in 0.26 in (1893)
Month to date precipitation 0.01 0.11  
Year to date precipitation 0.01 0.11  
Sea Level Pressure  
Sea Level Pressure 29.54 in    
Wind  
Wind Speed 10 mph (West)    
Max Wind Speed 21 mph    
Max Gust Speed 24 mph    
Visibility 7 miles    
Events Fog    
T = Trace of Precipitation, MM = Missing Value Source: NWS Daily Summary

Daily Weather History Graph

Daily Weather History Graph

Search for Another Location

Airport or City:

Astronomy

Jan. 10, 2013 Rise Set
Actual Time 7:34 AM MST 4:23 PM MST
Civil Twilight 6:59 AM MST 4:58 PM MST
Nautical Twilight 6:21 AM MST 5:36 PM MST
Astronomical Twilight 5:45 AM MST 6:12 PM MST
Moon 6:15 AM MST (1/10) 3:35 PM MST (1/10)
Length of Visible Light 9h 58m
Length of Day
8h 49m
Waning Crescent, 2% of the Moon is Illuminated
Jan 10
Waning Crescent
Jan 11
New
Jan 18
First Quarter
Jan 26
Full
Feb 3
Last Quarter

Hourly Weather History & Observations

Time (MST) Temp. Windchill Dew Point Humidity Pressure Visibility Wind Dir Wind Speed Gust Speed Precip Events Conditions
12:56 AM 33.1 °F 23.0 °F 26.1 °F 75% 29.74 in 10.0 mi South 15.0 mph - N/A   Clear
1:56 AM 34.0 °F 25.0 °F 27.0 °F 75% 29.72 in 10.0 mi South 12.7 mph - N/A   Clear
2:56 AM 35.1 °F 25.9 °F 26.1 °F 70% 29.70 in 10.0 mi SSW 13.8 mph - N/A   Clear
3:56 AM 37.0 °F 28.5 °F 26.1 °F 65% 29.67 in 10.0 mi South 13.8 mph - N/A   Clear
4:56 AM 36.0 °F 28.0 °F 26.1 °F 67% 29.65 in 10.0 mi South 11.5 mph - N/A   Clear
5:56 AM 34.0 °F 24.2 °F 26.1 °F 73% 29.65 in 10.0 mi South 15.0 mph - N/A   Clear
6:56 AM 35.1 °F 28.6 °F 26.1 °F 70% 29.65 in 10.0 mi SSW 8.1 mph - N/A   Clear
7:56 AM 34.0 °F 26.6 °F 25.0 °F 70% 29.62 in 10.0 mi South 9.2 mph - N/A   Clear
8:56 AM 33.1 °F - 25.0 °F 72% 29.60 in 10.0 mi Calm Calm - N/A   Clear
9:56 AM 35.1 °F 30.1 °F 26.1 °F 70% 29.55 in 10.0 mi East 5.8 mph - N/A   Clear
10:56 AM 34.0 °F 24.2 °F 26.1 °F 73% 29.55 in 10.0 mi South 15.0 mph - N/A   Clear
11:56 AM 34.0 °F 25.5 °F 27.0 °F 75% 29.51 in 10.0 mi South 11.5 mph - N/A   Clear
12:56 PM 34.0 °F 26.0 °F 27.0 °F 75% 29.49 in 10.0 mi SSE 10.4 mph - N/A   Clear
1:56 PM 35.1 °F 28.6 °F 28.0 °F 76% 29.47 in 10.0 mi SE 8.1 mph - N/A   Clear
2:56 PM 35.1 °F 26.9 °F 28.0 °F 76% 29.47 in 10.0 mi South 11.5 mph - N/A   Clear
3:56 PM 34.0 °F 28.0 °F 28.0 °F 79% 29.47 in 10.0 mi South 6.9 mph - N/A   Clear
4:56 PM 32.0 °F - 27.0 °F 82% 29.47 in 10.0 mi Calm Calm - N/A   Clear
5:56 PM 28.9 °F 23.9 °F 26.1 °F 89% 29.47 in 10.0 mi West 4.6 mph - N/A   Clear
6:56 PM 28.0 °F 19.3 °F 25.0 °F 88% 29.47 in 10.0 mi NW 9.2 mph - N/A   Clear
7:56 PM 27.0 °F 17.3 °F 24.1 °F 89% 29.50 in 10.0 mi NW 10.4 mph - N/A   Clear
8:12 PM 26.6 °F 17.5 °F 23.0 °F 86% 29.44 in 10.0 mi NW 9.2 mph - N/A   Scattered Clouds
8:21 PM 26.6 °F 16.8 °F 23.0 °F 86% 29.44 in 10.0 mi NW 10.4 mph - N/A   Mostly Cloudy
8:56 PM 27.0 °F 17.3 °F 25.0 °F 92% 29.53 in 3.0 mi North 10.4 mph - N/A   Overcast
9:02 PM 26.6 °F 16.2 °F 24.8 °F 93% 29.45 in 1.8 mi North 11.5 mph - N/A   Overcast
9:22 PM 26.6 °F 15.7 °F 24.8 °F 93% 29.46 in 0.8 mi North 12.7 mph - N/A   Mist
9:35 PM 26.6 °F 14.7 °F 24.8 °F 93% 29.46 in 1.0 mi North 15.0 mph - N/A   Mist
9:43 PM 26.6 °F 14.7 °F 24.8 °F 93% 29.46 in 0.8 mi North 15.0 mph 20.7 mph N/A   Mist
9:56 PM 26.1 °F 15.0 °F 24.1 °F 92% 29.54 in 0.5 mi North 12.7 mph - N/A Fog Light Freezing Fog
10:56 PM 24.1 °F 12.5 °F 23.0 °F 96% 29.57 in 0.5 mi North 12.7 mph - N/A Fog Light Freezing Fog
11:44 PM 24.8 °F 15.3 °F 23.0 °F 93% 29.50 in 0.2 mi North 9.2 mph - N/A Fog Light Freezing Fog
11:54 PM 24.8 °F 13.4 °F 21.2 °F 86% 29.50 in 0.5 mi North 12.7 mph - N/A Fog Light Freezing Fog
11:56 PM 24.1 °F 13.1 °F 21.9 °F 91% 29.58 in 0.5 mi NNW 11.5 mph 18.4 mph N/A Fog Light Freezing Fog